TimeEDT,TemperatureF,Dew PointF,Humidity,Sea Level PressureIn,VisibilityMPH,Wind Direction,Wind SpeedMPH,Gust SpeedMPH,PrecipitationIn,Events,Conditions,WindDirDegrees,DateUTC
12:51 AM,70.0,68.0,93,29.74,8.0,SE,4.6,-,N/A,,Scattered Clouds,140,2013-09-03 04:51:00
1:51 AM,69.1,68.0,96,29.74,4.0,Calm,Calm,-,N/A,,Scattered Clouds,0,2013-09-03 05:51:00
2:51 AM,68.0,66.9,96,29.75,4.0,Calm,Calm,-,N/A,,Partly Cloudy,0,2013-09-03 06:51:00
3:30 AM,68.0,66.2,94,29.75,5.0,Calm,Calm,-,N/A,,Mostly Cloudy,0,2013-09-03 07:30:00
3:51 AM,69.1,68.0,96,29.75,5.0,Calm,Calm,-,N/A,,Overcast,0,2013-09-03 07:51:00
4:51 AM,68.0,66.9,96,29.74,3.0,Calm,Calm,-,N/A,,Scattered Clouds,0,2013-09-03 08:51:00
5:01 AM,68.0,66.2,94,29.76,1.8,Calm,Calm,-,N/A,,Partly Cloudy,0,2013-09-03 09:01:00
5:18 AM,66.2,66.2,100,29.75,0.8,Calm,Calm,-,N/A,,Mist,0,2013-09-03 09:18:00
5:29 AM,66.2,66.2,100,29.75,0.2,Calm,Calm,-,N/A,Fog,Fog,0,2013-09-03 09:29:00
5:37 AM,66.2,66.2,100,29.76,1.0,Calm,Calm,-,N/A,,Mist,0,2013-09-03 09:37:00
5:40 AM,66.2,66.2,100,29.76,2.5,Calm,Calm,-,N/A,,Scattered Clouds,0,2013-09-03 09:40:00
5:45 AM,66.2,66.2,100,29.76,1.0,Calm,Calm,-,N/A,,Mist,0,2013-09-03 09:45:00
5:51 AM,66.0,64.9,96,29.76,0.5,Calm,Calm,-,N/A,Fog,Fog,0,2013-09-03 09:51:00
5:58 AM,64.4,64.4,100,29.77,0.2,SW,4.6,-,N/A,Fog,Fog,230,2013-09-03 09:58:00
6:15 AM,66.2,66.2,100,29.78,0.8,West,4.6,-,N/A,,Mist,260,2013-09-03 10:15:00
6:19 AM,66.2,66.2,100,29.78,1.2,West,3.5,-,N/A,,Scattered Clouds,270,2013-09-03 10:19:00
6:25 AM,66.2,66.2,100,29.78,3.0,West,3.5,-,N/A,,Scattered Clouds,260,2013-09-03 10:25:00
6:33 AM,68.0,66.2,94,29.78,2.0,Calm,Calm,-,N/A,,Partly Cloudy,0,2013-09-03 10:33:00
6:51 AM,68.0,66.9,96,29.78,2.5,West,3.5,-,N/A,,Clear,280,2013-09-03 10:51:00
7:03 AM,68.0,66.2,94,29.79,3.0,Calm,Calm,-,N/A,,Partly Cloudy,0,2013-09-03 11:03:00
7:51 AM,69.1,66.9,93,29.80,5.0,WSW,4.6,-,N/A,,Partly Cloudy,240,2013-09-03 11:51:00
8:51 AM,72.0,66.9,84,29.81,10.0,NW,4.6,-,N/A,,Overcast,320,2013-09-03 12:51:00
9:02 AM,71.6,66.2,83,29.82,10.0,WNW,3.5,-,N/A,,Overcast,300,2013-09-03 13:02:00
9:51 AM,71.1,63.0,75,29.83,10.0,NNW,8.1,-,N/A,,Overcast,340,2013-09-03 13:51:00
9:58 AM,71.6,64.4,78,29.83,10.0,NNW,6.9,-,N/A,,Overcast,340,2013-09-03 13:58:00
10:51 AM,75.0,63.0,66,29.83,10.0,NNW,6.9,-,N/A,,Mostly Cloudy,330,2013-09-03 14:51:00
11:51 AM,75.9,61.0,60,29.83,10.0,WNW,6.9,-,N/A,,Clear,290,2013-09-03 15:51:00
12:51 PM,77.0,59.0,54,29.82,10.0,NW,6.9,-,N/A,,Scattered Clouds,320,2013-09-03 16:51:00
1:51 PM,78.1,57.0,48,29.82,10.0,West,12.7,17.3,N/A,,Mostly Cloudy,280,2013-09-03 17:51:00
2:51 PM,79.0,55.9,45,29.81,10.0,WSW,11.5,-,N/A,,Partly Cloudy,250,2013-09-03 18:51:00
3:51 PM,80.1,55.9,43,29.81,10.0,NW,9.2,16.1,N/A,,Mostly Cloudy,310,2013-09-03 19:51:00
4:51 PM,78.1,55.0,45,29.81,10.0,West,9.2,19.6,N/A,,Partly Cloudy,280,2013-09-03 20:51:00
5:51 PM,77.0,55.0,47,29.83,10.0,NW,10.4,-,N/A,,Overcast,320,2013-09-03 21:51:00
6:51 PM,73.9,55.0,52,29.84,10.0,WNW,9.2,-,N/A,,Clear,290,2013-09-03 22:51:00
7:51 PM,69.1,55.9,63,29.87,10.0,West,4.6,-,N/A,,Clear,260,2013-09-03 23:51:00
8:51 PM,66.9,57.0,70,29.89,10.0,West,4.6,-,N/A,,Clear,270,2013-09-04 00:51:00
9:51 PM,64.9,55.9,73,29.91,10.0,West,4.6,-,N/A,,Clear,270,2013-09-04 01:51:00
10:51 PM,64.0,55.9,75,29.92,10.0,West,3.5,-,N/A,,Clear,260,2013-09-04 02:51:00
11:51 PM,63.0,55.9,78,29.93,10.0,WSW,4.6,-,N/A,,Clear,250,2013-09-04 03:51:00